This is the latest recevied weather packets stored in our database for station/object DG9BJA-13. If no packets are shown the sender has not sent any weather packets the latest 10 day(s).
| Time | Temp. | Humidity | Pressure | Rain* | Wind** | Luminosity | Snow |
|---|---|---|---|---|---|---|---|
| 1777787777 | 15° C | 93% | 1011.5 hPa | 0 mm | - | 97 W/m² | - |
| 1777787177 | 14.44° C | 93% | 1011.5 hPa | 0 mm | - | 69 W/m² | - |
| 1777786577 | 14.44° C | 93% | 1011.5 hPa | 0 mm | - | 65 W/m² | - |
| 1777785977 | 14.44° C | 94% | 1011.5 hPa | 0 mm | - | 65 W/m² | - |
| 1777785377 | 14.44° C | 94% | 1011.5 hPa | 0 mm | - | 46 W/m² | - |
| 1777784777 | 14.44° C | 94% | 1011.5 hPa | 0 mm | - | 44 W/m² | - |
| 1777784177 | 13.89° C | 94% | 1011.6 hPa | 0 mm | - | 56 W/m² | - |
| 1777783577 | 13.89° C | 95% | 1011.6 hPa | 0 mm | - | 42 W/m² | - |
| 1777782977 | 13.89° C | 95% | 1011.8 hPa | 0 mm | - | 42 W/m² | - |
| 1777782377 | 13.33° C | 95% | 1012.1 hPa | 0 mm | - | 33 W/m² | - |
| 1777781777 | 13.33° C | 95% | 1012.1 hPa | 0 mm | - | 18 W/m² | - |
| 1777781177 | 13.33° C | 95% | 1012.5 hPa | 0 mm | - | 5 W/m² | - |
| 1777780577 | 13.33° C | 95% | 1012.6 hPa | 0 mm | - | 0 W/m² | - |
| 1777779977 | 13.89° C | 95% | 1012.6 hPa | 0 mm | - | 0 W/m² | - |
| 1777779376 | 13.33° C | 95% | 1012.6 hPa | 0 mm | - | 0 W/m² | - |
| 1777778777 | 13.89° C | 95% | 1012.6 hPa | 0 mm | - | 0 W/m² | - |
| 1777778177 | 13.89° C | 95% | 1012.6 hPa | 0 mm | - | 0 W/m² | - |
| 1777777577 | 13.89° C | 95% | 1012.2 hPa | 0 mm | - | 0 W/m² | - |
| 1777776977 | 13.33° C | 95% | 1012.3 hPa | 0 mm | - | 0 W/m² | - |
| 1777776377 | 13.33° C | 95% | 1012.3 hPa | 0 mm | - | 0 W/m² | - |
| 1777775777 | 13.33° C | 95% | 1012.3 hPa | 0 mm | - | 0 W/m² | - |
| 1777775177 | 13.33° C | 95% | 1012.5 hPa | 0 mm | - | 0 W/m² | - |
| 1777774577 | 13.89° C | 95% | 1012.5 hPa | 0 mm | - | 0 W/m² | - |
| 1777773992 | 13.89° C | 95% | 1012.6 hPa | 0 mm | - | 0 W/m² | - |
| 1777773377 | 13.89° C | 95% | 1012.9 hPa | 0 mm | - | 0 W/m² | - |
* Rain latest hour (hover to see other rain measurements)
** Current wind speed in m/s (hover to see current wind gust speed)